Weather History for KCMI - September, 2012

Change the Weather History Date:

Wednesday, September 12, 2012

  Actual Average Record
Temperature  
Mean Temperature 72 °F 67 °F  
Max Temperature 87 °F 80 °F 99 °F (2014)
Min Temperature 57 °F 55 °F 44 °F (2007)
Degree Days  
Heating Degree Days 0 1  
Month to date heating degree days 4 9  
Since 1 July heating degree days 6 18  
Cooling Degree Days 7 4  
Month to date cooling degree days 86 57  
Year to date cooling degree days 1272 884  
Growing Degree Days 22 (Base 50)    
Moisture  
Dew Point 56 °F    
Average Humidity 59    
Maximum Humidity 86    
Minimum Humidity 31    
Precipitation  
Precipitation 0.00 in 0.13 in 0.99 in (2000)
Month to date precipitation 4.22 1.50  
Year to date precipitation 19.45 28.78  
Sea Level Pressure  
Sea Level Pressure 30.17 in    
Wind  
Wind Speed 8 mph (South)    
Max Wind Speed 17 mph    
Max Gust Speed 23 mph    
Visibility 10 miles    
Events      
T = Trace of Precipitation, MM = Missing Value Source: NWS Daily Summary

Daily Weather History Graph

Daily Weather History Graph

Search for Another Location

Airport or City:

Trip Planner

Search our weather history database for the weather conditions in past years. The results will help you decide how hot, cold, wet, or windy it might be!

Date:

Astronomy

Sep. 12, 2012 Rise Set
Actual Time 6:31 AM CDT 7:05 PM CDT
Civil Twilight 6:04 AM CDT 7:33 PM CDT
Nautical Twilight 5:32 AM CDT 8:05 PM CDT
Astronomical Twilight 4:59 AM CDT 8:38 PM CDT
Moon 2:48 AM CDT (9/12) 4:53 PM CDT (9/12)
Length of Visible Light 13h 28m
Length of Day
12h 34m
Waning Crescent, 13% of the Moon is Illuminated
Sep 12
Waning Crescent
Sep 15
New
Sep 22
First Quarter
Sep 29
Full
Oct 8
Last Quarter

Hourly Weather History & Observations

Time (CDT) Temp. Heat Index Dew Point Humidity Pressure Visibility Wind Dir Wind Speed Gust Speed Precip Events Conditions
12:53 AM 62.1 °F - 55.0 °F 78% 30.14 in 10.0 mi SSE 6.9 mph - N/A   Clear
1:53 AM 61.0 °F - 54.0 °F 78% 30.15 in 10.0 mi SSE 5.8 mph - N/A   Clear
2:53 AM 57.9 °F - 53.1 °F 84% 30.16 in 10.0 mi South 5.8 mph - N/A   Clear
3:53 AM 57.9 °F - 54.0 °F 87% 30.15 in 10.0 mi South 5.8 mph - N/A   Clear
4:53 AM 57.0 °F - 54.0 °F 89% 30.16 in 10.0 mi SSE 5.8 mph - N/A   Clear
5:53 AM 57.9 °F - 54.0 °F 87% 30.17 in 10.0 mi SSE 5.8 mph - N/A   Clear
6:53 AM 57.9 °F - 54.0 °F 87% 30.19 in 10.0 mi SSE 5.8 mph - N/A   Clear
7:53 AM 64.0 °F - 55.9 °F 75% 30.21 in 10.0 mi SSE 8.1 mph - N/A   Clear
8:53 AM 71.1 °F - 59.0 °F 66% 30.21 in 10.0 mi South 9.2 mph - N/A   Clear
9:53 AM 75.9 °F - 59.0 °F 56% 30.22 in 10.0 mi South 8.1 mph - N/A   Clear
10:53 AM 82.0 °F 81.7 °F 57.0 °F 42% 30.21 in 10.0 mi SSW 10.4 mph - N/A   Clear
11:53 AM 84.0 °F 82.9 °F 55.0 °F 37% 30.19 in 10.0 mi SW 11.5 mph 18.4 mph N/A   Partly Cloudy
12:53 PM 84.9 °F 83.3 °F 54.0 °F 34% 30.18 in 10.0 mi South 10.4 mph 21.9 mph N/A   Partly Cloudy
1:53 PM 87.1 °F 84.9 °F 53.1 °F 31% 30.15 in 10.0 mi SW 12.7 mph 19.6 mph N/A   Clear
2:53 PM 86.0 °F 84.2 °F 54.0 °F 33% 30.14 in 10.0 mi SW 8.1 mph 20.7 mph N/A   Scattered Clouds
3:53 PM 84.9 °F 83.6 °F 55.0 °F 36% 30.14 in 10.0 mi SSW 11.5 mph 23.0 mph N/A   Mostly Cloudy
4:53 PM 84.0 °F 83.0 °F 55.9 °F 38% 30.12 in 10.0 mi South 10.4 mph - N/A   Partly Cloudy
5:53 PM 79.0 °F - 57.0 °F 47% 30.13 in 10.0 mi SSW 6.9 mph - N/A   Clear
6:53 PM 75.9 °F - 57.9 °F 54% 30.14 in 10.0 mi South 5.8 mph - N/A   Clear
7:53 PM 69.1 °F - 57.9 °F 68% 30.16 in 10.0 mi South 5.8 mph - N/A   Scattered Clouds
8:53 PM 66.9 °F - 57.0 °F 70% 30.17 in 10.0 mi South 5.8 mph - N/A   Clear
9:53 PM 66.9 °F - 57.0 °F 70% 30.18 in 10.0 mi SSE 5.8 mph - N/A   Clear
10:53 PM 66.9 °F - 57.9 °F 73% 30.18 in 10.0 mi SSE 6.9 mph - N/A   Clear
11:53 PM 66.0 °F - 57.9 °F 75% 30.18 in 10.0 mi South 6.9 mph - N/A   Scattered Clouds